Location: Mohawk View
(42.7837°N, 73.7885°W)
Time: 16:49:43
(UTC+00:00)

USA 267 - Pass Details

Date: 17 June 2021
Orbit: 1102 x 1106 km, 123.0° (Epoch: 01 August)

Event Time Altitude Azimuth Distance (km) Brightness Sun altitude
Exits shadow 05:21:41 46° 178° (S) 1,450 3.4 -23.6°
Maximum altitude 05:23:21 58° 226° (SW) 1,274 3.3 -23.5°
Drops below altitude 10° 05:29:47 10° 305° (NW) 2,965 5.8 -23.4°
Sets 05:32:20 0° 310° (NW) 3,926 6.6 -23.3°
